Francistown, Botswana

10:59 PM CAT on October 17, 2017 (GMT +0200)
Francistown

Weather History for FBFT - March, 2014

Change the Weather History Date:

Wednesday, March 19, 2014

  Actual Average Record
Temperature  
Mean Temperature 76 °F -  
Max Temperature 89 °F 82 °F 95 °F (2002)
Min Temperature 64 °F 59 °F 55 °F (2017)
Cooling Degree Days 12    
Growing Degree Days 26 (Base 50)    
Moisture  
Dew Point 66 °F    
Average Humidity 75    
Maximum Humidity 96    
Minimum Humidity 46    
Precipitation  
Precipitation 0.00 in - - ()
Sea Level Pressure  
Sea Level Pressure 30.02 in    
Wind  
Wind Speed 4 mph ()    
Max Wind Speed 8 mph    
Max Gust Speed -    
Visibility 6.2 miles    
Events      
Averages and records for this station are not official NWS values.
T = Trace of Precipitation, MM = Missing Value Source: Averaged Metar Reports

Daily Weather History Graph

Daily Weather History Graph

Search for Another Location

Airport or City:

Trip Planner

Search our weather history database for the weather conditions in past years. The results will help you decide how hot, cold, wet, or windy it might be!

Date:

Astronomy

Mar. 19, 2014 Rise Set
Actual Time 6:13 AM CAT 6:21 PM CAT
Civil Twilight 5:51 AM CAT 6:44 PM CAT
Nautical Twilight 5:25 AM CAT 7:09 PM CAT
Astronomical Twilight 4:59 AM CAT 7:35 PM CAT
Moon 8:12 PM CAT (3/19) 8:25 AM CAT (3/19)
Length of Visible Light 12h 52m
Length of Day
12h 08m
Waning Gibbous, 93% of the Moon is Illuminated
Mar 19
Waning Gibbous
Mar 24
Last Quarter
Mar 30
New
Apr 7
First Quarter
Apr 15
Full

Hourly Weather History & Observations

Time (CAT) Temp. Heat Index Dew Point Humidity Pressure Visibility Wind Dir Wind Speed Gust Speed Precip Events Conditions
12:00 AM 69.8 °F - 66.2 °F 88% 30.06 in - East 5.8 mph - N/A   Clear
1:00 AM 69.8 °F - 66.2 °F 88% 30.06 in - East 4.6 mph - N/A   Clear
2:00 AM 68 °F - 65 °F 88%  in 6 mi ENE 5.8 mph - -  
2:00 AM 68.0 °F - 66.2 °F 94% 30.04 in - ENE 5.8 mph - N/A   Clear
3:00 AM 66.2 °F - 64.4 °F 94% 30.04 in - North - - N/A   Clear
4:00 AM 66.2 °F - 64.4 °F 94% 30.04 in - SE 3.5 mph - N/A   Clear
5:00 AM 65 °F - 64 °F 96%  in 6 mi SE 2.3 mph - -  
5:00 AM 66.2 °F - 64.4 °F 94% 30.04 in - Variable 2.3 mph - N/A   Clear
6:00 AM 64.4 °F - 62.6 °F 94% 30.04 in - Variable 1.2 mph - N/A   Clear
7:00 AM 66.2 °F - 64.4 °F 94% 30.06 in - East 3.5 mph - N/A   Clear
9:00 AM 75.2 °F - 66.2 °F 73% 30.09 in - Variable 2.3 mph - N/A   Clear
11:00 AM 82.4 °F 84.6 °F 66.2 °F 58% 30.06 in - SSE 3.5 mph - N/A   Clear
12:00 PM 86.0 °F 87.3 °F 64.4 °F 48% 30.04 in - NW 3.5 mph - N/A   Clear
1:00 PM 87.8 °F 89.4 °F 64.4 °F 46% 30.01 in 6.2 mi NNW 8.1 mph - N/A   Partly Cloudy
3:00 PM 89.6 °F 92.2 °F 66.2 °F 46% 29.98 in 6.2 mi South 5.8 mph - N/A   Scattered Clouds
4:00 PM 87.8 °F 89.4 °F 64.4 °F 46% 29.95 in 6.2 mi Variable 2.3 mph - N/A   Scattered Clouds
5:00 PM 87.8 °F 89.4 °F 64.4 °F 46% 29.95 in 6.2 mi SW 3.5 mph - N/A   Scattered Clouds
6:00 PM 84.2 °F 86.6 °F 66.2 °F 55% 29.95 in 6.2 mi Variable 2.3 mph - N/A   Partly Cloudy
7:00 PM 78.8 °F - 69.8 °F 74% 29.98 in 6.2 mi SE 4.6 mph - N/A   Partly Cloudy
8:00 PM 77.0 °F - 69.8 °F 78% 29.98 in 6.2 mi SE 3.5 mph - N/A   Partly Cloudy
9:00 PM 75.2 °F - 68.0 °F 78% 30.01 in 6.2 mi SE 4.6 mph - N/A   Partly Cloudy
10:00 PM 73.4 °F - 66.2 °F 78% 30.01 in - Calm Calm - N/A   Clear
11:00 PM 73.4 °F - 66.2 °F 78% 30.01 in - Variable 1.2 mph - N/A   Clear